SL-8 DEB

Satellite information

Favourite Embed

Satellite Type and Status

DEBRISIN ORBIT

Key statistics

Satellite SL-8 DEB at a glance.

Uptime

17206

Days in orbit

Revolutions

≈ 14.5

Per day

Orbit

LEO

Low Earth Orbit

Inclination

82.9

Latest

Satellite identification and parameters

Extended collection of information and parameters for SL-8 DEB.

Object identification

Identified? True

Debris? True

Object name: SL-8 DEB

International designator: 1978-034C

Object number (NORAD): 13474

Object ID (CCSDS): 13474

Country: COMMONWEALTH OF INDEPENDENT STATES (CIS)

Current information (Y/N): Y

RCS size: SMALL

Orbital parameters

Period: 99.431 minutes

Inclination: 82.9183 deg

SMA: 7109.533 km

Apoapsis: 738.865 km

Periapsis: 723.932 km

RAAN: 264.7166 deg

Eccentricy: 0.0010502

Argument of periapsis: 5.344 deg

Mean anomaly: 124.8606 deg

Mean motion: 14.48241983 rev/day

Mean motion (dot): 0.00006691 rev/day2

B* drag term: 0.0017868 1/REarth

Two-line elements (TLE)

Creation date: May 8, 2025, 3:01 a.m.

Reference frame: TEME

Reference center: EARTH

Epoch: May 7, 2025, 9:02 p.m. UTC

TLE line 0: 0 SL-8 DEB

TLE line 1: 1 13474U 78034C 25127.87672329 .00006691 00000-0 17868-2 0 9996

TLE line 2: 2 13474 82.9183 264.7166 0010502 5.3440 124.8606 14.48241983403837

Live tracking on map

Real-time ground track for satellite SL-8 DEB.

In-orbit conjunctions

A list of the most updated potential collisions computed for object SL-8 DEB.

Target Orbit TCA Probability of collision Miss distance Type
COSMOS 2251 DEB LEO 2024-09-15 12:32:50 0.0001452998 276.0 (m) DEBRIS

Associated space launch

Civilian navigation satellite equivalent to the purely military Parus

SL-8 DEB was lifted into orbit during the mission ‘Kosmos-3M | Tsikada 4’, on board a Kosmos-3M space rocket.

The launch took place on March 31, 1978, 2:01 p.m. from 132/1 (132L).

For more information about the launch, click the button.

Launch to space Kosmos-3M | Tsikada 4
Kosmos-3M | Tsikada 4

Agency: N/A

Status: Launch Successful

Launch date: March 31, 1978, 2:01 p.m. UTC

Rocket: Kosmos-3M

Launch pad: 132/1 (132L)

Location: Plesetsk Cosmodrome, Russian Federation

...

Latest news about this satellite

There are no fresh news available about this satellite. Check back as we update our databases every day.


Newsletter sign-up

Weekly statistics, charts and insights to help you stay on top of the space industry.